CZ-6A DEB, 54958

Orbit data source: Space-Track

CZ-6A DEB, 54958 is space debris in SSO originally from a launch on Fri, 11 Nov 2022 UTC launched from the Taiyaun Space Center, China (TSC). Debris objects in space refer to the collection of defunct objects orbiting the Earth. Examples of debris include non-operational satellites, rocket bodies, and fragments generated from explosions, collisions, or faulty payload assembly.

Loading next visibility...
Identifier
54958, 2022-151SX
Orbit
SSO
Country
Flag of CNCN / PRC
Related business
Manufacturer
SAST
Mission
Spacecraft
Bus & Motor
Unknown
Mass
Unknown
Launch date (UTC)
2022-11-11 (4 years ago)
Launch vehicle
Unknown
Launch site
Taiyaun Space Center, China (TSC)
Object type
Payload
Rocket body
Debris
Shape & HBR
Unknown shape, 0.1 m
Radar Cross Section
Small (<0.1 m²)

Expand to show TLE details & history
Last TLE update: 7 hours ago

TLE from 7 hours ago
0 CZ-6A DEB
1 54958U 22151SX  26235.96978200  .00003553  00000-0  15287-2 0  9992
2 54958  98.8177 246.2267 0051467 107.1925 253.4897 14.24549167195062
Epoch: 2026-08-23T23:16Z
TLE epoch observation values (Epoch: 2026-08-23T23:16:29.164Z)
Latitude
-0.00002°
Longitude
-75.15302°
Altitude
823.617 km
Speed
7.436 km/s
True Right ascension
16h 24m 54s
True Declination
0° 00' 00"
Sunlit
Object was in daylight at epoch
Visualization orbit readout
Latitude
Unknown
Longitude
Unknown
Altitude
Unknown
Speed
Unknown
Apparent Right ascension
Unknown
Apparent Declination
Unknown
Sunlit
N/A
Visualization observer readout
Local Sidereal Time
21:13:06
Azimuth
Unknown
Elevation
Unknown
Doppler factor
Unknown
Orbital elements
Apogee altitude
844.147 km
Perigee altitude
770.186 km
Semi-major axis
7,185.303 km
Eccentricity
0.00515
Inclination
98.8177°
RAAN
246.2267°
Arg. of periapsis
107.1925°
True anomaly
252.92529°
Mean anomaly
253.4897°
Eccentric anomaly
253.20739°
Mean motion
3.56349 °/min
Orbital period
101.02 mins
BSTAR
0.0015287
Loading maneuver chart data...
Computing Atmospheric mass density...
Loading historical data...
Loading historical data...
Loading historical data...
Loading historical data...
Loading historical data...
Loading historical data...
Loading historical data...

Documentation

Showing up to 5 results
|